Tracking 29892 objects as of 21-Nov-2024
HD Live streaming from Space Station
objects crossing your sky now

CZ-6A DEB

Track CZ-6A DEB now!
10-day predictions


NORAD ID: 54906
Int'l Code: 2022-151QT
Perigee: 616.8 km
Apogee: 688.8 km
Inclination: 99.0 °
Period: 97.6 minutes
Semi major axis: 7023 km
RCS: Unknown
Launch date: November 11, 2022
Source: People's Republic of China (PRC)
Launch site: Taiyaun Space Center, China (TSC)

Note: This is SATELLITE DEBRIS
Your satellite tracking list
Your tracking list is empty




NASA's NSSDC Master Catalog

Two Line Element Set (TLE):
1 54906U 22151QT  24324.13923761  .00050713  00000-0  73648-2 0  9998
2 54906  98.9759  28.6699 0051255 230.1597 129.5093 14.74844073106332
Source of the keplerian elements: AFSPC